Wetterdaten: Freitag, 13.05.2011
Datum Zeit Temp. Auen Feucht Auen Luftdruck Regen Richtung Richtung Windben
13.05.2011 00:00 12,8 C 97 % 1088,2 hPa 0,0 mm W 270 1,1 km/h (1 Bft)
13.05.2011 00:05 12,8 C 97 % 1088,1 hPa 0,0 mm W 270 1,1 km/h (1 Bft)
13.05.2011 00:10 12,9 C 97 % 1088,3 hPa 0,0 mm W 270 1,1 km/h (1 Bft)
13.05.2011 00:15 12,8 C 97 % 1088,3 hPa 0,0 mm W 270 1,1 km/h (1 Bft)
13.05.2011 00:20 12,8 C 97 % 1088,4 hPa 0,0 mm W 270 2,5 km/h (1 Bft)
13.05.2011 00:25 12,8 C 97 % 1088,3 hPa 0,0 mm W 270 2,5 km/h (1 Bft)
13.05.2011 00:30 12,8 C 97 % 1088,4 hPa 0,0 mm W 270 2,5 km/h (1 Bft)
13.05.2011 00:35 12,7 C 97 % 1088,4 hPa 0,0 mm W 270 2,5 km/h (1 Bft)
13.05.2011 00:40 12,8 C 98 % 1088,4 hPa 0,0 mm W 270 2,5 km/h (1 Bft)
13.05.2011 00:45 12,8 C 98 % 1088,2 hPa 0,0 mm W 270 2,5 km/h (1 Bft)
13.05.2011 00:50 12,8 C 98 % 1088,1 hPa 0,0 mm W 270 1,1 km/h (1 Bft)
13.05.2011 00:55 12,8 C 98 % 1088,2 hPa 0,0 mm W 270 1,1 km/h (1 Bft)
13.05.2011 01:00 12,8 C 98 % 1088,1 hPa 0,0 mm W 270 1,1 km/h (1 Bft)
13.05.2011 01:05 12,8 C 98 % 1088,2 hPa 0,0 mm W 270 1,1 km/h (1 Bft)
13.05.2011 01:10 12,7 C 98 % 1088,4 hPa 0,0 mm W 270 1,1 km/h (1 Bft)
13.05.2011 01:15 12,6 C 97 % 1088,3 hPa 0,0 mm W 270 1,1 km/h (1 Bft)
13.05.2011 01:20 12,6 C 98 % 1088,4 hPa 0,0 mm N 0 0,0 km/h (0 Bft)
13.05.2011 01:25 12,6 C 98 % 1088,6 hPa 0,0 mm N 0 0,0 km/h (0 Bft)
13.05.2011 01:30 12,6 C 98 % 1088,7 hPa 0,0 mm N 0 0,0 km/h (0 Bft)
13.05.2011 01:35 12,6 C 98 % 1088,6 hPa 0,0 mm N 0 0,0 km/h (0 Bft)
13.05.2011 01:40 12,6 C 98 % 1088,9 hPa 0,0 mm W 270 1,1 km/h (1 Bft)
13.05.2011 01:45 12,6 C 98 % 1088,7 hPa 0,0 mm W 270 1,1 km/h (1 Bft)
13.05.2011 01:50 12,6 C 98 % 1088,9 hPa 0,0 mm W 270 1,1 km/h (1 Bft)
13.05.2011 01:55 12,6 C 98 % 1088,8 hPa 0,0 mm W 270 1,1 km/h (1 Bft)
13.05.2011 02:00 12,6 C 98 % 1088,7 hPa 0,0 mm W 270 1,1 km/h (1 Bft)
13.05.2011 02:05 12,6 C 98 % 1088,8 hPa 0,0 mm N 0 0,0 km/h (0 Bft)
13.05.2011 02:10 12,6 C 98 % 1088,7 hPa 0,0 mm N 0 0,0 km/h (0 Bft)
13.05.2011 02:15 12,6 C 98 % 1088,9 hPa 0,0 mm N 0 0,0 km/h (0 Bft)
13.05.2011 02:20 12,6 C 98 % 1088,7 hPa 0,0 mm N 0 0,0 km/h (0 Bft)
13.05.2011 02:25 12,6 C 98 % 1088,7 hPa 0,0 mm N 0 0,0 km/h (0 Bft)
13.05.2011 02:30 12,6 C 98 % 1088,8 hPa 0,0 mm W 270 2,5 km/h (1 Bft)
13.05.2011 02:35 12,6 C 98 % 1089,0 hPa 0,0 mm W 270 2,5 km/h (1 Bft)
13.05.2011 02:40 12,6 C 98 % 1089,0 hPa 0,0 mm W 270 2,5 km/h (1 Bft)
13.05.2011 02:45 12,6 C 98 % 1089,0 hPa 0,0 mm W 270 1,1 km/h (1 Bft)
13.05.2011 02:50 12,6 C 98 % 1088,8 hPa 0,0 mm W 270 3,6 km/h (1 Bft)
13.05.2011 02:55 12,6 C 98 % 1089,0 hPa 0,0 mm W 270 3,6 km/h (1 Bft)
13.05.2011 03:00 12,6 C 97 % 1088,9 hPa 0,0 mm W 270 2,5 km/h (1 Bft)
13.05.2011 03:05 12,6 C 97 % 1089,1 hPa 0,0 mm W 270 1,1 km/h (1 Bft)
13.05.2011 03:10 12,6 C 97 % 1089,1 hPa 0,0 mm W 270 1,1 km/h (1 Bft)
13.05.2011 03:15 12,5 C 96 % 1089,1 hPa 0,0 mm W 270 1,1 km/h (1 Bft)
13.05.2011 03:20 12,5 C 96 % 1089,0 hPa 0,0 mm W 270 1,1 km/h (1 Bft)
13.05.2011 03:25 12,5 C 96 % 1089,3 hPa 0,0 mm W 270 1,1 km/h (1 Bft)
13.05.2011 03:30 12,4 C 96 % 1089,2 hPa 0,0 mm W 270 1,1 km/h (1 Bft)
13.05.2011 03:35 12,4 C 96 % 1089,1 hPa 0,0 mm W 270 1,1 km/h (1 Bft)
13.05.2011 03:40 12,3 C 96 % 1089,6 hPa 0,0 mm W 270 1,1 km/h (1 Bft)
13.05.2011 03:45 12,3 C 95 % 1089,3 hPa 0,0 mm W 270 1,1 km/h (1 Bft)
13.05.2011 03:50 12,3 C 95 % 1089,3 hPa 0,0 mm W 270 1,1 km/h (1 Bft)
13.05.2011 03:55 12,2 C 95 % 1089,4 hPa 0,0 mm W 270 1,1 km/h (1 Bft)
13.05.2011 04:00 12,2 C 95 % 1089,5 hPa 0,0 mm W 270 1,1 km/h (1 Bft)
13.05.2011 04:05 12,2 C 95 % 1089,6 hPa 0,0 mm W 270 1,1 km/h (1 Bft)
13.05.2011 04:10 12,2 C 95 % 1089,5 hPa 0,0 mm W 270 1,1 km/h (1 Bft)
13.05.2011 04:15 12,2 C 96 % 1089,4 hPa 0,0 mm W 270 1,1 km/h (1 Bft)
13.05.2011 04:20 12,2 C 95 % 1089,6 hPa 0,0 mm W 270 1,1 km/h (1 Bft)
13.05.2011 04:25 12,1 C 96 % 1089,7 hPa 0,0 mm W 270 1,1 km/h (1 Bft)
13.05.2011 04:30 12,2 C 95 % 1089,8 hPa 0,0 mm W 270 3,6 km/h (1 Bft)
13.05.2011 04:35 12,2 C 95 % 1089,8 hPa 0,0 mm W-SW 256 9,7 km/h (2 Bft)
13.05.2011 04:40 12,4 C 93 % 1089,4 hPa 0,0 mm W-SW 253 11,2 km/h (2 Bft)
13.05.2011 04:45 12,4 C 92 % 1089,7 hPa 0,0 mm W 262 11,2 km/h (2 Bft)
13.05.2011 04:50 12,4 C 91 % 1089,8 hPa 0,0 mm W 267 8,6 km/h (2 Bft)
13.05.2011 04:55 12,4 C 91 % 1089,7 hPa 0,0 mm W-SW 255 6,1 km/h (2 Bft)
13.05.2011 05:00 12,4 C 91 % 1090,0 hPa 0,0 mm W-SW 258 6,1 km/h (2 Bft)
13.05.2011 05:05 12,4 C 91 % 1089,9 hPa 0,0 mm W 270 2,5 km/h (1 Bft)
13.05.2011 05:10 12,2 C 90 % 1090,0 hPa 0,0 mm W 270 2,5 km/h (1 Bft)
13.05.2011 05:15 12,2 C 91 % 1090,1 hPa 0,0 mm W 270 2,5 km/h (1 Bft)
13.05.2011 05:20 12,1 C 91 % 1090,1 hPa 0,0 mm W-SW 258 3,6 km/h (1 Bft)
13.05.2011 05:25 12,1 C 91 % 1090,3 hPa 0,0 mm W-SW 238 3,6 km/h (1 Bft)
13.05.2011 05:30 12,1 C 92 % 1090,2 hPa 0,0 mm SW 225 3,6 km/h (1 Bft)
13.05.2011 05:35 12,1 C 92 % 1090,2 hPa 0,0 mm SW 225 3,6 km/h (1 Bft)
13.05.2011 05:40 12,0 C 91 % 1090,3 hPa 0,0 mm SW 225 5,0 km/h (1 Bft)
13.05.2011 05:45 12,0 C 91 % 1090,3 hPa 0,0 mm SW 225 6,1 km/h (2 Bft)
13.05.2011 05:50 11,9 C 90 % 1090,5 hPa 0,0 mm SW 225 7,2 km/h (2 Bft)
13.05.2011 05:55 12,0 C 90 % 1090,7 hPa 0,0 mm SW 231 7,2 km/h (2 Bft)
13.05.2011 06:00 12,0 C 90 % 1090,7 hPa 0,0 mm SW 232 6,1 km/h (2 Bft)
13.05.2011 06:05 12,0 C 90 % 1090,9 hPa 0,0 mm SW 225 6,1 km/h (2 Bft)
13.05.2011 06:10 12,0 C 90 % 1090,9 hPa 0,0 mm SW 225 3,6 km/h (1 Bft)
13.05.2011 06:15 12,0 C 90 % 1091,1 hPa 0,0 mm SW 225 5,0 km/h (1 Bft)
13.05.2011 06:20 12,0 C 90 % 1091,0 hPa 0,0 mm SW 225 5,0 km/h (1 Bft)
13.05.2011 06:25 12,1 C 90 % 1091,2 hPa 0,0 mm SW 225 6,1 km/h (2 Bft)
13.05.2011 06:30 12,1 C 89 % 1091,2 hPa 0,0 mm SW 234 6,1 km/h (2 Bft)
13.05.2011 06:35 12,1 C 89 % 1091,3 hPa 0,0 mm W-SW 241 6,1 km/h (2 Bft)
13.05.2011 06:40 12,2 C 88 % 1091,2 hPa 0,0 mm W-SW 239 6,1 km/h (2 Bft)
13.05.2011 06:45 12,2 C 87 % 1091,4 hPa 0,0 mm W-SW 247 6,1 km/h (2 Bft)
13.05.2011 06:50 12,3 C 87 % 1091,4 hPa 0,0 mm W 259 6,1 km/h (2 Bft)
13.05.2011 06:55 12,3 C 86 % 1091,3 hPa 0,0 mm W 267 6,1 km/h (2 Bft)
13.05.2011 07:00 12,4 C 86 % 1091,6 hPa 0,0 mm W 270 7,2 km/h (2 Bft)
13.05.2011 07:05 12,4 C 86 % 1091,4 hPa 0,0 mm W-SW 244 7,2 km/h (2 Bft)
13.05.2011 07:10 12,4 C 85 % 1091,5 hPa 0,3 mm SW 227 7,2 km/h (2 Bft)
13.05.2011 07:15 12,5 C 84 % 1091,5 hPa 0,0 mm W-SW 237 7,2 km/h (2 Bft)
13.05.2011 07:20 12,5 C 83 % 1091,5 hPa 0,0 mm W-SW 258 7,2 km/h (2 Bft)
13.05.2011 07:25 12,5 C 83 % 1091,8 hPa 0,0 mm W-SW 249 6,1 km/h (2 Bft)
13.05.2011 07:30 13,1 C 83 % 1091,7 hPa 0,0 mm W-SW 240 8,6 km/h (2 Bft)
13.05.2011 07:35 13,6 C 81 % 1091,5 hPa 0,0 mm W-SW 248 8,6 km/h (2 Bft)
13.05.2011 07:40 13,9 C 78 % 1091,4 hPa 0,0 mm W-SW 258 8,6 km/h (2 Bft)
13.05.2011 07:45 13,9 C 77 % 1091,5 hPa 0,0 mm W 259 11,2 km/h (2 Bft)
13.05.2011 07:50 13,9 C 76 % 1091,6 hPa 0,0 mm W 260 12,2 km/h (2 Bft)
13.05.2011 07:55 14,5 C 77 % 1091,4 hPa 0,0 mm W 259 12,2 km/h (2 Bft)
13.05.2011 08:00 15,0 C 75 % 1091,4 hPa 0,0 mm W-SW 250 9,7 km/h (2 Bft)
13.05.2011 08:05 15,0 C 75 % 1091,3 hPa 0,0 mm SW 235 9,7 km/h (2 Bft)
13.05.2011 08:10 15,1 C 72 % 1091,3 hPa 0,0 mm SW 235 11,2 km/h (2 Bft)
13.05.2011 08:15 14,6 C 70 % 1091,5 hPa 0,0 mm W-SW 251 13,3 km/h (3 Bft)
13.05.2011 08:20 14,5 C 71 % 1091,6 hPa 0,0 mm W-SW 255 13,3 km/h (3 Bft)
13.05.2011 08:25 14,8 C 71 % 1091,6 hPa 0,0 mm W-SW 253 13,3 km/h (3 Bft)
13.05.2011 08:30 15,1 C 71 % 1091,5 hPa 0,0 mm W 260 14,8 km/h (3 Bft)
13.05.2011 08:35 15,2 C 70 % 1091,4 hPa 0,0 mm W-SW 257 14,8 km/h (3 Bft)
13.05.2011 08:40 15,6 C 69 % 1091,4 hPa 0,0 mm W-SW 249 12,2 km/h (2 Bft)
13.05.2011 08:45 15,8 C 67 % 1091,2 hPa 0,0 mm W 262 12,2 km/h (2 Bft)
13.05.2011 08:50 15,9 C 67 % 1091,3 hPa 0,0 mm W 264 13,3 km/h (3 Bft)
13.05.2011 08:55 16,4 C 66 % 1091,3 hPa 0,0 mm W-SW 243 20,9 km/h (4 Bft)
13.05.2011 09:00 16,7 C 65 % 1091,0 hPa 0,0 mm W-SW 245 20,9 km/h (4 Bft)
13.05.2011 09:05 16,7 C 65 % 1091,2 hPa 0,0 mm W-SW 238 14,8 km/h (3 Bft)
13.05.2011 09:10 17,0 C 62 % 1091,3 hPa 0,0 mm SW 228 14,8 km/h (3 Bft)
13.05.2011 09:15 16,9 C 62 % 1091,1 hPa 0,0 mm W-SW 239 19,4 km/h (3 Bft)
13.05.2011 09:20 17,0 C 62 % 1091,1 hPa 0,0 mm W-SW 246 19,4 km/h (3 Bft)
13.05.2011 09:25 16,8 C 62 % 1091,3 hPa 0,0 mm W-SW 258 19,4 km/h (3 Bft)
13.05.2011 09:30 17,0 C 62 % 1091,1 hPa 0,0 mm W 274 12,2 km/h (2 Bft)
13.05.2011 09:35 17,1 C 61 % 1091,0 hPa 0,0 mm W 272 13,3 km/h (3 Bft)
13.05.2011 09:40 17,0 C 61 % 1091,0 hPa 0,0 mm W 262 17,3 km/h (3 Bft)
13.05.2011 09:45 17,0 C 61 % 1091,3 hPa 0,0 mm W 259 17,3 km/h (3 Bft)
13.05.2011 09:50 17,1 C 61 % 1091,1 hPa 0,0 mm W 263 17,3 km/h (3 Bft)
13.05.2011 09:55 17,2 C 60 % 1091,2 hPa 0,0 mm W-SW 258 17,3 km/h (3 Bft)
13.05.2011 10:00 17,4 C 60 % 1091,1 hPa 0,0 mm W-SW 248 17,3 km/h (3 Bft)
13.05.2011 10:05 17,4 C 60 % 1091,1 hPa 0,0 mm W-SW 256 14,8 km/h (3 Bft)
13.05.2011 10:10 17,7 C 60 % 1091,0 hPa 0,0 mm W 272 13,3 km/h (3 Bft)
13.05.2011 10:15 17,6 C 58 % 1091,1 hPa 0,0 mm W 270 13,3 km/h (3 Bft)
13.05.2011 10:20 17,7 C 59 % 1091,2 hPa 0,0 mm W 259 13,3 km/h (3 Bft)
13.05.2011 10:25 18,0 C 59 % 1091,1 hPa 0,0 mm W-SW 253 13,3 km/h (3 Bft)
13.05.2011 10:30 18,0 C 60 % 1091,0 hPa 0,0 mm W-SW 253 13,3 km/h (3 Bft)
13.05.2011 10:35 18,2 C 59 % 1090,9 hPa 0,0 mm W-SW 247 15,8 km/h (3 Bft)
13.05.2011 10:40 18,1 C 57 % 1090,9 hPa 0,0 mm W-SW 253 15,8 km/h (3 Bft)
13.05.2011 10:45 18,1 C 58 % 1091,0 hPa 0,0 mm W 266 11,2 km/h (2 Bft)
13.05.2011 10:50 18,2 C 57 % 1090,9 hPa 0,0 mm W 267 11,2 km/h (2 Bft)
13.05.2011 10:55 18,4 C 57 % 1091,0 hPa 0,0 mm W 266 13,3 km/h (3 Bft)
13.05.2011 11:00 18,6 C 58 % 1090,8 hPa 0,0 mm W 265 13,3 km/h (3 Bft)
13.05.2011 11:05 18,6 C 58 % 1090,8 hPa 0,0 mm W-SW 243 12,2 km/h (2 Bft)
13.05.2011 11:10 18,5 C 56 % 1090,8 hPa 0,0 mm SW 236 9,7 km/h (2 Bft)
13.05.2011 11:15 18,3 C 56 % 1090,7 hPa 0,0 mm W-SW 244 11,2 km/h (2 Bft)
13.05.2011 11:20 17,9 C 55 % 1090,9 hPa 0,0 mm W-SW 245 12,2 km/h (2 Bft)
13.05.2011 11:25 17,9 C 57 % 1090,8 hPa 0,0 mm W-SW 254 12,2 km/h (2 Bft)
13.05.2011 11:30 18,1 C 56 % 1090,9 hPa 0,0 mm W 259 12,2 km/h (2 Bft)
13.05.2011 11:35 18,7 C 54 % 1090,6 hPa 0,0 mm W-SW 251 11,2 km/h (2 Bft)
13.05.2011 11:40 19,1 C 54 % 1090,4 hPa 0,0 mm W-SW 239 12,2 km/h (2 Bft)
13.05.2011 11:45 19,2 C 53 % 1090,5 hPa 0,0 mm W-SW 257 15,8 km/h (3 Bft)
13.05.2011 11:50 19,5 C 53 % 1090,7 hPa 0,0 mm W 265 15,8 km/h (3 Bft)
13.05.2011 11:55 19,9 C 50 % 1090,3 hPa 0,0 mm W-SW 245 13,3 km/h (3 Bft)
13.05.2011 12:00 19,5 C 52 % 1090,5 hPa 0,0 mm W-SW 245 14,8 km/h (3 Bft)
13.05.2011 12:05 19,5 C 52 % 1090,3 hPa 0,0 mm W 268 14,8 km/h (3 Bft)
13.05.2011 12:10 19,8 C 51 % 1090,4 hPa 0,0 mm W 270 14,8 km/h (3 Bft)
13.05.2011 12:15 19,9 C 48 % 1090,3 hPa 0,0 mm W 266 14,8 km/h (3 Bft)
13.05.2011 12:20 20,3 C 50 % 1090,2 hPa 0,0 mm W 264 11,2 km/h (2 Bft)
13.05.2011 12:25 20,8 C 49 % 1090,3 hPa 0,0 mm W-SW 256 13,3 km/h (3 Bft)
13.05.2011 12:30 20,7 C 45 % 1090,1 hPa 0,0 mm W-SW 253 13,3 km/h (3 Bft)
13.05.2011 12:35 20,4 C 46 % 1090,0 hPa 0,0 mm W 259 12,2 km/h (2 Bft)
13.05.2011 12:40 20,7 C 46 % 1089,9 hPa 0,0 mm W-SW 256 11,2 km/h (2 Bft)
13.05.2011 12:45 20,9 C 46 % 1089,9 hPa 0,0 mm W-SW 252 12,2 km/h (2 Bft)
13.05.2011 12:50 20,8 C 45 % 1089,9 hPa 0,0 mm W-SW 257 12,2 km/h (2 Bft)
13.05.2011 12:55 20,3 C 46 % 1089,9 hPa 0,0 mm W 265 12,2 km/h (2 Bft)
13.05.2011 13:00 20,3 C 45 % 1089,8 hPa 0,0 mm W-SW 251 12,2 km/h (2 Bft)
13.05.2011 13:05 20,3 C 45 % 1089,6 hPa 0,0 mm W-SW 239 12,2 km/h (2 Bft)
13.05.2011 13:10 20,4 C 45 % 1089,8 hPa 0,0 mm W-SW 242 7,2 km/h (2 Bft)
13.05.2011 13:15 20,3 C 45 % 1089,6 hPa 0,0 mm W-SW 237 9,7 km/h (2 Bft)
13.05.2011 13:20 20,3 C 43 % 1089,5 hPa 0,0 mm SW 219 9,7 km/h (2 Bft)
13.05.2011 13:25 20,3 C 45 % 1089,6 hPa 0,0 mm SW 226 11,2 km/h (2 Bft)
13.05.2011 13:30 20,5 C 44 % 1089,5 hPa 0,0 mm W-SW 242 11,2 km/h (2 Bft)
13.05.2011 13:35 20,4 C 45 % 1089,5 hPa 0,0 mm O-NO 59 8,6 km/h (2 Bft)
13.05.2011 13:40 20,7 C 44 % 1089,4 hPa 0,0 mm W-SW 243 13,3 km/h (3 Bft)
13.05.2011 13:45 20,9 C 42 % 1089,2 hPa 0,0 mm W-SW 251 13,3 km/h (3 Bft)
13.05.2011 13:50 20,8 C 43 % 1089,5 hPa 0,0 mm W-SW 245 13,3 km/h (3 Bft)
13.05.2011 13:55 20,8 C 42 % 1089,1 hPa 0,0 mm W-SW 245 9,7 km/h (2 Bft)
13.05.2011 14:00 20,9 C 42 % 1089,2 hPa 0,0 mm W-SW 241 9,7 km/h (2 Bft)
13.05.2011 14:05 20,9 C 42 % 1089,0 hPa 0,0 mm W-SW 250 9,7 km/h (2 Bft)
13.05.2011 14:10 21,1 C 42 % 1088,9 hPa 0,0 mm W 270 5,0 km/h (1 Bft)
13.05.2011 14:15 20,9 C 42 % 1089,1 hPa 0,0 mm W 261 9,7 km/h (2 Bft)
13.05.2011 14:20 21,4 C 42 % 1088,7 hPa 0,0 mm W 259 9,7 km/h (2 Bft)
13.05.2011 14:25 21,5 C 41 % 1088,8 hPa 0,0 mm W 263 9,7 km/h (2 Bft)
13.05.2011 14:30 21,4 C 41 % 1088,7 hPa 0,0 mm W-SW 252 9,7 km/h (2 Bft)
13.05.2011 14:35 21,3 C 42 % 1088,6 hPa 0,0 mm SW 234 9,7 km/h (2 Bft)
13.05.2011 14:40 21,5 C 42 % 1088,7 hPa 0,0 mm SW 236 9,7 km/h (2 Bft)
13.05.2011 14:45 21,7 C 41 % 1088,7 hPa 0,0 mm W-SW 242 15,8 km/h (3 Bft)
13.05.2011 14:50 21,8 C 40 % 1088,5 hPa 0,0 mm W-SW 252 15,8 km/h (3 Bft)
13.05.2011 14:55 21,6 C 41 % 1088,3 hPa 0,0 mm W 263 12,2 km/h (2 Bft)
13.05.2011 15:00 21,8 C 40 % 1088,3 hPa 0,0 mm W-SW 252 12,2 km/h (2 Bft)
13.05.2011 15:05 21,8 C 40 % 1088,2 hPa 0,0 mm W-SW 242 11,2 km/h (2 Bft)
13.05.2011 15:10 21,2 C 38 % 1088,4 hPa 0,0 mm W-SW 254 7,2 km/h (2 Bft)
13.05.2011 15:15 20,9 C 42 % 1088,4 hPa 0,0 mm SW 230 8,6 km/h (2 Bft)
13.05.2011 15:20 21,0 C 40 % 1088,2 hPa 0,0 mm S 184 9,7 km/h (2 Bft)
13.05.2011 15:25 20,7 C 40 % 1088,1 hPa 0,0 mm S 174 9,7 km/h (2 Bft)
13.05.2011 15:30 20,7 C 43 % 1088,1 hPa 0,0 mm S-SO 164 9,7 km/h (2 Bft)
13.05.2011 15:35 20,9 C 41 % 1088,0 hPa 0,0 mm S 171 11,2 km/h (2 Bft)
13.05.2011 15:40 20,7 C 42 % 1088,0 hPa 0,0 mm W-SW 258 11,2 km/h (2 Bft)
13.05.2011 15:45 20,3 C 42 % 1088,0 hPa 0,0 mm O-SO 123 12,2 km/h (2 Bft)
13.05.2011 15:50 20,2 C 43 % 1088,2 hPa 0,0 mm SO 130 17,3 km/h (3 Bft)
13.05.2011 15:55 20,0 C 44 % 1088,1 hPa 0,0 mm O-SO 115 17,3 km/h (3 Bft)
13.05.2011 16:00 20,0 C 43 % 1088,2 hPa 0,0 mm O-SO 102 13,3 km/h (3 Bft)
13.05.2011 16:05 20,0 C 43 % 1087,8 hPa 0,0 mm O-NO 59 11,2 km/h (2 Bft)
13.05.2011 16:10 19,9 C 45 % 1087,9 hPa 0,0 mm N 10 11,2 km/h (2 Bft)
13.05.2011 16:15 19,8 C 44 % 1087,8 hPa 0,0 mm O 85 12,2 km/h (2 Bft)
13.05.2011 16:20 19,8 C 44 % 1087,8 hPa 0,0 mm O 87 13,3 km/h (3 Bft)
13.05.2011 16:25 19,6 C 43 % 1087,8 hPa 0,0 mm O 80 14,8 km/h (3 Bft)
13.05.2011 16:30 19,3 C 43 % 1087,9 hPa 0,0 mm O 79 14,8 km/h (3 Bft)
13.05.2011 16:35 19,3 C 43 % 1087,7 hPa 0,0 mm NO 50 7,2 km/h (2 Bft)
13.05.2011 16:40 19,6 C 44 % 1087,7 hPa 0,0 mm O-SO 111 7,2 km/h (2 Bft)
13.05.2011 16:45 19,8 C 44 % 1087,5 hPa 0,0 mm O-SO 120 12,2 km/h (2 Bft)
13.05.2011 16:50 19,6 C 40 % 1087,6 hPa 0,0 mm SO 133 12,2 km/h (2 Bft)
13.05.2011 16:55 19,5 C 42 % 1087,7 hPa 0,0 mm S-SO 152 11,2 km/h (2 Bft)
13.05.2011 17:00 19,5 C 42 % 1087,6 hPa 0,0 mm S-SO 150 13,3 km/h (3 Bft)
13.05.2011 17:05 19,5 C 42 % 1087,4 hPa 0,0 mm O-SO 115 13,3 km/h (3 Bft)
13.05.2011 17:10 19,4 C 45 % 1087,5 hPa 0,0 mm O-SO 102 11,2 km/h (2 Bft)
13.05.2011 17:15 19,6 C 43 % 1087,4 hPa 0,0 mm O-SO 111 12,2 km/h (2 Bft)
13.05.2011 17:20 19,5 C 43 % 1087,4 hPa 0,0 mm O 79 12,2 km/h (2 Bft)
13.05.2011 17:25 19,5 C 42 % 1087,4 hPa 0,0 mm NO 45 12,2 km/h (2 Bft)
13.05.2011 17:30 19,4 C 45 % 1087,2 hPa 0,0 mm O 80 12,2 km/h (2 Bft)
13.05.2011 17:35 19,3 C 44 % 1087,3 hPa 0,0 mm O 98 11,2 km/h (2 Bft)
13.05.2011 17:40 19,3 C 44 % 1087,3 hPa 0,0 mm O 100 11,2 km/h (2 Bft)
13.05.2011 17:45 19,4 C 44 % 1087,3 hPa 0,0 mm O 98 9,7 km/h (2 Bft)
13.05.2011 17:50 19,3 C 44 % 1087,3 hPa 0,0 mm O-NO 71 7,2 km/h (2 Bft)
13.05.2011 17:55 19,3 C 43 % 1087,1 hPa 0,0 mm O 86 8,6 km/h (2 Bft)
13.05.2011 18:00 19,3 C 44 % 1087,0 hPa 0,0 mm O 92 8,6 km/h (2 Bft)
13.05.2011 18:05 19,3 C 44 % 1087,0 hPa 0,0 mm O-SO 114 6,1 km/h (2 Bft)
13.05.2011 18:10 19,2 C 43 % 1087,0 hPa 0,0 mm O-SO 104 9,7 km/h (2 Bft)
13.05.2011 18:15 19,3 C 45 % 1086,9 hPa 0,0 mm O-NO 67 9,7 km/h (2 Bft)
13.05.2011 18:20 19,3 C 43 % 1087,0 hPa 0,0 mm N-NO 27 9,7 km/h (2 Bft)
13.05.2011 18:25 19,1 C 43 % 1087,0 hPa 0,0 mm N-NW 347 11,2 km/h (2 Bft)
13.05.2011 18:30 19,2 C 44 % 1086,8 hPa 0,0 mm N 356 11,2 km/h (2 Bft)
13.05.2011 18:35 19,1 C 45 % 1086,8 hPa 0,0 mm NO 34 9,7 km/h (2 Bft)
13.05.2011 18:40 19,0 C 45 % 1087,1 hPa 0,0 mm NO 45 9,7 km/h (2 Bft)
13.05.2011 18:45 18,8 C 47 % 1086,9 hPa 0,0 mm O-NO 64 9,7 km/h (2 Bft)
13.05.2011 18:50 18,6 C 46 % 1086,9 hPa 0,0 mm O-NO 70 11,2 km/h (2 Bft)
13.05.2011 18:55 18,3 C 48 % 1087,0 hPa 0,0 mm NO 55 12,2 km/h (2 Bft)
13.05.2011 19:00 18,2 C 49 % 1087,0 hPa 0,0 mm O-NO 60 12,2 km/h (2 Bft)
13.05.2011 19:05 18,2 C 49 % 1087,0 hPa 0,0 mm O 83 7,2 km/h (2 Bft)
13.05.2011 19:10 18,0 C 50 % 1086,9 hPa 0,0 mm O-NO 77 6,1 km/h (2 Bft)
13.05.2011 19:15 17,9 C 51 % 1087,0 hPa 0,0 mm O-NO 75 7,2 km/h (2 Bft)
13.05.2011 19:20 17,7 C 51 % 1087,0 hPa 0,0 mm O 81 7,2 km/h (2 Bft)
13.05.2011 19:25 17,5 C 52 % 1087,0 hPa 0,0 mm O 91 6,1 km/h (2 Bft)
13.05.2011 19:30 17,3 C 52 % 1087,0 hPa 0,0 mm O-SO 117 6,1 km/h (2 Bft)
13.05.2011 19:35 17,1 C 53 % 1087,1 hPa 0,0 mm O-SO 123 6,1 km/h (2 Bft)
13.05.2011 19:40 16,9 C 53 % 1087,1 hPa 0,0 mm O-SO 116 7,2 km/h (2 Bft)
13.05.2011 19:45 16,8 C 52 % 1087,1 hPa 0,0 mm O-NO 58 11,2 km/h (2 Bft)
13.05.2011 19:50 16,6 C 54 % 1087,2 hPa 0,0 mm O-NO 64 11,2 km/h (2 Bft)
13.05.2011 19:55 16,2 C 56 % 1087,5 hPa 0,0 mm SO 130 7,2 km/h (2 Bft)
13.05.2011 20:00 15,9 C 58 % 1087,3 hPa 0,0 mm S-SO 157 5,0 km/h (1 Bft)
13.05.2011 20:05 15,9 C 58 % 1087,3 hPa 0,0 mm SO 146 3,6 km/h (1 Bft)
13.05.2011 20:10 15,5 C 58 % 1087,4 hPa 0,0 mm O-SO 123 5,0 km/h (1 Bft)
13.05.2011 20:15 15,4 C 58 % 1087,4 hPa 0,0 mm O 97 5,0 km/h (1 Bft)
13.05.2011 20:20 15,2 C 59 % 1087,5 hPa 0,0 mm O-NO 57 3,6 km/h (1 Bft)
13.05.2011 20:25 14,9 C 60 % 1087,4 hPa 0,0 mm NO 45 2,5 km/h (1 Bft)
13.05.2011 20:30 14,5 C 61 % 1087,5 hPa 0,0 mm O 99 2,5 km/h (1 Bft)
13.05.2011 20:35 14,2 C 63 % 1087,5 hPa 0,0 mm S 175 2,5 km/h (1 Bft)
13.05.2011 20:40 14,0 C 64 % 1087,7 hPa 0,0 mm S 181 1,1 km/h (1 Bft)
13.05.2011 20:45 13,7 C 65 % 1087,5 hPa 0,0 mm S 181 1,1 km/h (1 Bft)
13.05.2011 20:50 13,3 C 66 % 1087,9 hPa 0,0 mm S 181 2,5 km/h (1 Bft)
13.05.2011 20:55 13,0 C 68 % 1087,7 hPa 0,0 mm S 181 2,5 km/h (1 Bft)
13.05.2011 21:00 12,8 C 68 % 1087,9 hPa 0,0 mm S 181 1,1 km/h (1 Bft)
13.05.2011 21:05 12,8 C 68 % 1087,8 hPa 0,0 mm S 181 1,1 km/h (1 Bft)
13.05.2011 21:10 12,5 C 68 % 1088,1 hPa 0,0 mm S 181 1,1 km/h (1 Bft)
13.05.2011 21:15 12,4 C 69 % 1087,9 hPa 0,0 mm S 181 1,1 km/h (1 Bft)
13.05.2011 21:20 12,3 C 69 % 1088,1 hPa 0,0 mm S 181 1,1 km/h (1 Bft)
13.05.2011 21:25 12,2 C 70 % 1087,9 hPa 0,0 mm S 181 1,1 km/h (1 Bft)
13.05.2011 21:30 12,1 C 70 % 1087,9 hPa 0,0 mm S 181 1,1 km/h (1 Bft)
13.05.2011 21:35 12,1 C 70 % 1087,9 hPa 0,0 mm S 181 1,1 km/h (1 Bft)
13.05.2011 21:40 12,0 C 70 % 1088,0 hPa 0,0 mm S 181 1,1 km/h (1 Bft)
13.05.2011 21:45 11,9 C 70 % 1088,0 hPa 0,0 mm S 181 1,1 km/h (1 Bft)
13.05.2011 21:50 11,9 C 71 % 1088,2 hPa 0,0 mm S 181 1,1 km/h (1 Bft)
13.05.2011 21:55 11,8 C 71 % 1088,1 hPa 0,0 mm S 181 1,1 km/h (1 Bft)
13.05.2011 22:00 11,6 C 72 % 1088,2 hPa 0,0 mm S 181 1,1 km/h (1 Bft)
13.05.2011 22:05 11,6 C 72 % 1088,1 hPa 0,0 mm S 181 1,1 km/h (1 Bft)
13.05.2011 22:10 11,2 C 73 % 1088,3 hPa 0,0 mm S 181 1,1 km/h (1 Bft)
13.05.2011 22:15 11,1 C 74 % 1088,4 hPa 0,0 mm S 181 1,1 km/h (1 Bft)
13.05.2011 22:20 10,8 C 74 % 1088,4 hPa 0,0 mm S 181 2,5 km/h (1 Bft)
13.05.2011 22:25 10,7 C 75 % 1088,2 hPa 0,0 mm S 181 2,5 km/h (1 Bft)
13.05.2011 22:30 10,5 C 75 % 1088,1 hPa 0,0 mm S 181 1,1 km/h (1 Bft)
13.05.2011 22:35 10,4 C 76 % 1088,2 hPa 0,0 mm S 181 1,1 km/h (1 Bft)
13.05.2011 22:40 10,1 C 76 % 1088,0 hPa 0,0 mm S 181 1,1 km/h (1 Bft)
13.05.2011 22:45 9,8 C 77 % 1088,2 hPa 0,0 mm N 0 0,0 km/h (0 Bft)
13.05.2011 22:50 9,6 C 78 % 1087,9 hPa 0,0 mm N 0 0,0 km/h (0 Bft)
13.05.2011 22:55 9,6 C 79 % 1088,2 hPa 0,0 mm S 181 1,1 km/h (1 Bft)
13.05.2011 23:00 9,8 C 79 % 1088,2 hPa 0,0 mm S 181 1,1 km/h (1 Bft)
13.05.2011 23:05 9,8 C 79 % 1088,3 hPa 0,0 mm S 181 1,1 km/h (1 Bft)
13.05.2011 23:10 9,8 C 79 % 1088,0 hPa 0,0 mm S 181 1,1 km/h (1 Bft)
13.05.2011 23:15 9,7 C 80 % 1088,0 hPa 0,0 mm S 181 1,1 km/h (1 Bft)
13.05.2011 23:20 9,7 C 80 % 1087,9 hPa 0,0 mm S 181 1,1 km/h (1 Bft)
13.05.2011 23:25 9,6 C 80 % 1087,8 hPa 0,0 mm S 181 1,1 km/h (1 Bft)
13.05.2011 23:30 9,6 C 80 % 1087,8 hPa 0,0 mm S 181 1,1 km/h (1 Bft)
13.05.2011 23:35 9,6 C 81 % 1088,2 hPa 0,0 mm S 181 1,1 km/h (1 Bft)
13.05.2011 23:40 9,4 C 81 % 1088,0 hPa 0,0 mm S 181 1,1 km/h (1 Bft)
13.05.2011 23:45 9,2 C 81 % 1087,9 hPa 0,0 mm S 181 1,1 km/h (1 Bft)
13.05.2011 23:50 9,2 C 82 % 1088,0 hPa 0,0 mm S 181 1,1 km/h (1 Bft)
13.05.2011 23:55 9,2 C 82 % 1088,2 hPa 0,0 mm S 181 1,1 km/h (1 Bft)
_ Min-Zeit 23:45 15:10 18:30 - - - 01:20
Minimum _ 9,2 C 38 % 1086,8 hPa - - - 0,0 km/h (0 Bft)
_ Max-Zeit 14:50 00:40 07:25 07:10 - - 08:55
Maximum _ 21,8 C 98 % 1091,8 hPa 0,3 mm - - 20,9 km/h
W-SW (4 Bft)
Durchschnitt _ 15,6 C 68 % 1089,1 hPa #0,3 mm W - 7,4 km/h (2 Bft)